[[{"header":{"parameterUnit":"m.s-1","parameterCategory":1,"la1":30.2991,"la2":30.254,"lo1":-89.0895,"lo2":-89.0444,"dy":0.0017,"dx":0.0017,"nx":28,"ny":28,"refTime":"2025-05-23T09:00:00:Z","depth":0,"parameterNumber":2,"parameterNumberName":"U-component_of_WINDS"},"data":[0,0,0,0,0,0,0,0,0,0,0,0,0,0,0,0,0,0,0,0,0,0,0,0,0,0,0,0,0,0,0,0,0,0,0,0,0,0,0,0,0,0,0,0,0,0,0,0,0,0,0,0,0,0,0,0,0,0,0.9306,0.9306,0,0.9373,0.9374,0.9375,0.934,0.9338,0.9336,0.9334,0.9405,0.9408,0.9412,0,0,0,0,0,0,0,0,0,0,0,0,0,0.9147,0.915,0.9306,0.9307,0.9307,0.9373,0.9374,0.9375,0.934,0.9338,0.9336,0.9334,0.9404,0.9408,0.9412,0,0,0,0,0,0,0,0,0,0,0,0,0,0.9215,0.9151,0.9306,0.9298,0.9298,0.9373,0.9374,0.9375,0.9341,0.9338,0.9335,0.9333,0.9402,0.9407,0.9413,0.95,0,0,0.9429,0.9431,0,0,0,0,0,0,0,0,0.9211,0.9221,0.9298,0.9299,0.9299,0.9345,0.9344,0.9417,0.9341,0.9324,0.9334,0.9331,0.9387,0.9394,0.9412,0.9503,0.9506,0.9429,0.9433,0.9435,0.9436,0,0,0,0,0,0,0,0.9207,0.9218,0.9332,0.9299,0.93,0.9291,0.9298,0.9357,0.937,0.9326,0.9323,0.9332,0.9387,0.9407,0.9414,0.9507,0.9429,0.9434,0.9437,0.9439,0.9671,0.9674,0,0,0,0,0,0,0.9202,0.9214,0.933,0.9334,0.9247,0.9296,0.9304,0.9333,0.9369,0.9372,0.9334,0.933,0.9399,0.9407,0.9416,0.9519,0.9435,0.944,0.9443,0.9668,0.9672,0.9675,0,0,0,0,0,0,0.9199,0.9213,0.9328,0.9274,0.9288,0.9302,0.9335,0.9336,0.9356,0.9376,0.9378,0.9352,0.9398,0.9409,0.9479,0.9521,0.9442,0.9447,0.9664,0.9669,0.9673,0.9726,0,0,0,0,0,0,0.9194,0.9212,0.9245,0.9275,0.9291,0.9389,0.9338,0.9339,0.9365,0.9361,0.9394,0.9396,0.9396,0.9471,0.9484,0.9527,0.9451,0.9661,0.9667,0.9672,0.9721,0.9732,0.9741,0,0,0,0,0,0.9189,0.9258,0.9247,0.9261,0.9332,0.9392,0.9401,0.9399,0.9369,0.9402,0.9415,0.9395,0.9514,0.9478,0.9493,0.9538,0.9658,0.9665,0.9671,0.9716,0.973,0.9741,0,0,0,0,0,0,0.9233,0.9261,0.925,0.933,0.9359,0.9386,0.9427,0.9414,0.9452,0.9446,0.9442,0.945,0.9522,0.9537,0.9497,0.9623,0.9582,0.9591,0.9611,0.9624,0.9634,0.9628,0.9456,0,0,0,0,0,0.9252,0.9298,0.932,0.9389,0.9404,0.9413,0.9439,0.9435,0.9465,0.9477,0.9494,0.9524,0.9568,0.9597,0.9639,0.9723,0.9729,0.9761,0.9771,0.978,0.9788,0.9832,0.9846,0.9697,0.9697,0.9696,0,0,0.9292,0.9313,0.9342,0.9398,0.942,0.9467,0.9424,0.9476,0.951,0.9485,0.9551,0.9566,0.9598,0.9676,0.9711,0.969,0.9831,0.9788,0.9795,0.9798,0.9841,0.9855,0.9867,0.9701,0.97,0.97,0,0,0.9388,0.941,0.9468,0.9491,0.9524,0.953,0.9544,0.9573,0.9581,0.9648,0.9629,0.9671,0.9747,0.977,0.9793,0.9897,0.9881,0.9911,0.9965,1.0008,1.002,1.003,1.0066,1.0079,0.992,0.992,0.992,0,0.9433,0.9503,0.95,0.9553,0.9578,0.9557,0.9616,0.9638,0.9684,0.9701,0.9678,0.9772,0.9793,0.9875,0.99,0.9919,0.9935,0.9907,1.0019,1.0029,1.0039,1.0073,1.0087,0.9923,0.9923,0.9922,0.9922,0,0.9557,0.9606,0.9649,0.9693,0.9723,0.9779,0.9784,0.9815,0.9809,0.9817,0.9885,0.9909,0.9954,0.9974,0.9969,1.0055,1.0041,1.0019,0.9976,1.0056,1.0088,1.0101,0.9928,0.9927,0.9926,0.9925,0,0,0.9682,0.9723,0.9739,0.9757,0.9792,0.983,0.9885,0.9929,0.9955,0.9987,1.0032,1.0097,1.0076,1.0101,1.0098,1.0137,1.0216,1.0109,1.011,1.0127,1.0311,1.0327,1.0342,1.0206,1.0209,1.0211,1.0308,0,0.9779,0.9874,0.9873,0.9962,1.0006,0.9987,1.0034,1.0061,1.007,1.0109,1.012,1.0165,1.0135,1.0149,1.0186,1.0199,1.0253,1.0192,1.0247,1.0249,1.0238,1.0359,1.0376,1.0466,1.032,1.0323,1.0324,0,0.9905,0.994,1.0033,1.006,1.0079,1.0122,1.0161,1.02,1.0229,1.0233,1.0261,1.0252,1.0307,1.0265,1.0341,1.0299,1.0322,1.0332,1.0335,1.0339,1.029,1.0364,1.0495,1.0508,1.0344,1.0342,1.0341,0,0.9985,1.0056,1.012,1.0137,1.0171,1.0201,1.0217,1.0244,1.027,1.0305,1.0322,1.0364,1.0386,1.0418,1.042,1.0389,1.0497,1.0454,1.0501,1.05,1.0523,1.0521,1.0657,1.054,1.054,1.054,1.054,0,1.0092,1.015,1.0156,1.0195,1.0258,1.0257,1.0319,1.0332,1.0357,1.0398,1.0384,1.0423,1.0425,1.0465,1.0468,1.0529,1.054,1.0544,1.0544,1.0544,1.0543,1.0558,1.0551,1.0544,1.0543,1.0542,1.0541,0,1.0192,1.0198,1.0267,1.0293,1.0301,1.0347,1.0369,1.0406,1.0415,1.0467,1.0479,1.0492,1.0538,1.0544,1.0599,1.06,1.0674,1.0668,1.0663,1.0662,1.0707,1.0702,1.0856,1.0876,1.0748,1.0749,1.075,0,1.0259,1.0302,1.0333,1.036,1.0377,1.042,1.0446,1.0446,1.0475,1.0511,1.0544,1.0589,1.0624,1.0699,1.0713,1.0755,1.0748,1.08,1.0754,1.0753,1.0747,1.0744,1.0747,1.0808,1.0809,1.081,1.0811,0,1.0377,1.0378,1.0417,1.0456,1.0488,1.052,1.0549,1.0572,1.0576,1.0608,1.0655,1.0682,1.0738,1.0782,1.0822,1.0839,1.0825,1.0826,1.0838,1.0838,1.0833,1.0835,1.0685,1.0822,1.0821,1.082,1.0819,1.0819,1.0461,1.0498,1.0525,1.0569,1.0591,1.0618,1.0654,1.0667,1.0706,1.075,1.0748,1.0799,1.0827,1.088,1.0899,1.0939,1.0922,1.0941,1.0945,1.095,1.0953,1.0828,1.0947,1.0947,1.0947,1.0946,1.0946,0,1.0577,1.0594,1.0633,1.0675,1.0708,1.0693,1.0725,1.0754,1.0799,1.0827,1.0862,1.0915,1.0958,1.0975,1.1017,1.1046,1.1041,1.1057,1.1054,1.1057,1.0967,1.0951,1.106,1.106,1.106,1.106,1.106,1.106,1.0641,1.0702,1.0707,1.0779,1.0795,1.0845,1.0864,1.0889,1.0911,1.0971,1.1006,1.1017,1.104,1.1083,1.1122,1.1126,1.1141,1.1159,1.116,1.1075,1.1064,1.1053,1.1038,1.1163,1.1163,1.1247,1.1248,1.1249]},{"header":{"parameterUnit":"m.s-1","parameterCategory":1,"la1":30.2991,"la2":30.254,"lo1":-89.0895,"lo2":-89.0444,"dy":0.0017,"dx":0.0017,"nx":28,"ny":28,"refTime":"2025-05-23T09:00:00:Z","depth":0,"parameterNumber":3,"parameterNumberName":"V-component_of_WINDS"},"data":[0,0,0,0,0,0,0,0,0,0,0,0,0,0,0,0,0,0,0,0,0,0,0,0,0,0,0,0,0,0,0,0,0,0,0,0,0,0,0,0,0,0,0,0,0,0,0,0,0,0,0,0,0,0,0,0,0,0,0.7104,0.7106,0,0.7277,0.7279,0.7281,0.729,0.7288,0.7286,0.7284,0.7465,0.7471,0.7478,0,0,0,0,0,0,0,0,0,0,0,0,0,0.6781,0.6787,0.7104,0.7106,0.7108,0.7277,0.728,0.7282,0.729,0.7288,0.7285,0.7283,0.7463,0.7471,0.7479,0,0,0,0,0,0,0,0,0,0,0,0,0,0.6934,0.6788,0.7103,0.7132,0.7137,0.7277,0.728,0.7283,0.7291,0.7288,0.7285,0.7282,0.746,0.747,0.748,0.7603,0,0,0.7511,0.7515,0,0,0,0,0,0,0,0,0.6926,0.6946,0.7126,0.7131,0.7136,0.7259,0.7232,0.739,0.7292,0.7232,0.7284,0.728,0.7399,0.7414,0.7453,0.7612,0.7619,0.7511,0.7518,0.7522,0.7525,0,0,0,0,0,0,0,0.6915,0.6939,0.7172,0.7129,0.7135,0.7137,0.7156,0.7262,0.7331,0.7237,0.7238,0.7259,0.7401,0.7444,0.7458,0.7622,0.7511,0.752,0.7526,0.753,0.7889,0.7892,0,0,0,0,0,0,0.6898,0.693,0.7167,0.7178,0.7021,0.7146,0.7166,0.7222,0.733,0.7343,0.7261,0.7258,0.7428,0.7446,0.7464,0.7616,0.7522,0.7531,0.7537,0.7886,0.789,0.7894,0,0,0,0,0,0,0.6891,0.6919,0.716,0.7054,0.7085,0.7154,0.7217,0.7228,0.727,0.7348,0.736,0.7292,0.7426,0.745,0.7568,0.7622,0.7536,0.7545,0.7882,0.7887,0.7892,0.7919,0,0,0,0,0,0,0.6882,0.6917,0.6964,0.7055,0.7091,0.7261,0.7221,0.7233,0.7287,0.7285,0.738,0.7393,0.7426,0.7553,0.7578,0.7634,0.7553,0.7877,0.7884,0.789,0.7914,0.7925,0.7934,0,0,0,0,0,0.687,0.6966,0.6967,0.6995,0.7151,0.7264,0.7284,0.732,0.7291,0.734,0.7389,0.739,0.7611,0.7565,0.7593,0.7653,0.7874,0.7882,0.789,0.791,0.7923,0.7934,0,0,0,0,0,0,0.6882,0.6979,0.6981,0.7108,0.7178,0.7265,0.7328,0.7333,0.7413,0.7408,0.7449,0.747,0.7587,0.7632,0.7579,0.7778,0.7739,0.7753,0.7745,0.7758,0.7768,0.7756,0.7561,0,0,0,0,0,0.6899,0.6981,0.7062,0.7167,0.7201,0.7258,0.7309,0.733,0.7404,0.7434,0.7492,0.7564,0.765,0.7706,0.779,0.7919,0.794,0.7974,0.7984,0.7992,0.8005,0.8076,0.8092,0.7919,0.7919,0.7919,0,0,0.6936,0.6999,0.7049,0.7171,0.7227,0.7312,0.7283,0.7375,0.7439,0.7448,0.7563,0.7608,0.7691,0.7816,0.7873,0.7856,0.8056,0.8002,0.8008,0.8016,0.8086,0.8102,0.8117,0.7925,0.7924,0.7923,0,0,0.7047,0.7102,0.7195,0.7252,0.7336,0.7373,0.7395,0.7482,0.7512,0.7627,0.7635,0.7712,0.7859,0.7918,0.7967,0.8097,0.81,0.8123,0.8177,0.8246,0.8259,0.8272,0.8319,0.8335,0.8134,0.8134,0.8134,0,0.7082,0.721,0.7243,0.7335,0.7388,0.7397,0.7492,0.7546,0.7654,0.7691,0.7669,0.7853,0.791,0.8048,0.8079,0.8119,0.8146,0.8114,0.8254,0.8267,0.8279,0.8324,0.8342,0.8137,0.8136,0.8136,0.8136,0,0.725,0.7339,0.7404,0.7506,0.7567,0.7659,0.7706,0.7763,0.7778,0.7817,0.7934,0.8002,0.8099,0.8132,0.8149,0.8273,0.8259,0.8246,0.8209,0.8297,0.8341,0.8358,0.814,0.8139,0.8138,0.8138,0,0,0.7377,0.7493,0.7517,0.7563,0.7656,0.7725,0.7818,0.7911,0.7959,0.8033,0.8112,0.8234,0.8222,0.8278,0.83,0.836,0.8459,0.8339,0.8342,0.836,0.86,0.861,0.863,0.846,0.8463,0.8466,0.8593,0,0.7498,0.7663,0.7694,0.7837,0.7919,0.7928,0.8008,0.8074,0.8112,0.8187,0.8229,0.8316,0.8293,0.8326,0.8386,0.8434,0.8508,0.8425,0.8535,0.8538,0.8516,0.8653,0.8665,0.8782,0.861,0.8613,0.8615,0,0.7664,0.7739,0.789,0.7971,0.8006,0.8078,0.8165,0.8237,0.8311,0.8334,0.8395,0.841,0.8506,0.8462,0.8595,0.8538,0.8585,0.8615,0.862,0.8633,0.8584,0.8671,0.882,0.8838,0.8642,0.864,0.8638,0,0.7742,0.7881,0.799,0.8029,0.8125,0.8175,0.8217,0.8288,0.8342,0.8418,0.8453,0.8539,0.8587,0.8654,0.8691,0.8656,0.8822,0.8781,0.8845,0.8844,0.8882,0.8879,0.9041,0.8908,0.8908,0.8908,0.8907,0,0.7876,0.7969,0.8026,0.8093,0.8196,0.823,0.8331,0.8373,0.8435,0.8511,0.8523,0.8593,0.8637,0.8714,0.8744,0.885,0.8871,0.8893,0.89,0.8893,0.889,0.8926,0.8919,0.8912,0.8911,0.891,0.891,0,0.7982,0.8024,0.8143,0.8223,0.8245,0.8318,0.8386,0.8452,0.8488,0.8583,0.8607,0.8665,0.8755,0.8798,0.8911,0.8931,0.9051,0.9052,0.9026,0.9029,0.9091,0.9085,0.9283,0.9311,0.9158,0.9159,0.916,0,0.8066,0.8137,0.8224,0.8274,0.8318,0.8399,0.8453,0.8488,0.8544,0.8632,0.8687,0.8777,0.8852,0.8996,0.9049,0.9135,0.9139,0.9202,0.9152,0.9142,0.9141,0.9137,0.9144,0.9212,0.9213,0.9214,0.9215,0,0.8211,0.8228,0.8305,0.8389,0.8452,0.852,0.8587,0.8628,0.8673,0.8735,0.8827,0.8885,0.8999,0.9089,0.9177,0.9221,0.9227,0.923,0.925,0.9244,0.9227,0.9238,0.9053,0.9226,0.9225,0.9224,0.9224,0.9223,0.831,0.8373,0.8443,0.8528,0.8582,0.8643,0.8708,0.8751,0.8828,0.8923,0.8939,0.9037,0.9107,0.9227,0.9273,0.935,0.9336,0.9364,0.9371,0.9378,0.9382,0.9212,0.9366,0.9366,0.9366,0.9366,0.9366,0,0.8457,0.8501,0.8579,0.8671,0.8738,0.8734,0.8807,0.8863,0.8949,0.9014,0.9086,0.9191,0.9277,0.9335,0.9423,0.9473,0.9478,0.9495,0.9493,0.9503,0.939,0.9365,0.949,0.949,0.949,0.949,0.949,0.949,0.8541,0.8647,0.8672,0.8804,0.8848,0.8944,0.8986,0.9042,0.9094,0.921,0.9282,0.9318,0.938,0.9472,0.9551,0.9565,0.9598,0.9616,0.963,0.9524,0.9511,0.9499,0.9475,0.9622,0.9622,0.9737,0.9739,0.9739]}]]